Date String (YYYY-MM-DD hh:mm:ss) UTC,Instrument flags,Ambient pressure (hPa),Sample flow (lpm),Bypass flow (lpm),Sample temperature (°C),Ambient temperature (°C),ASC tube jacket temperature (°C),LED temperature (°C),Box temperature (°C),Sample RH (%),Span deviation,Mass concentration (μg/m³),Mass concentration (μg/m³),Mass concentration (μg/m³)
DateTimeUTC,F1_M11,P_M11,Q1_M11,Q2_M11,T1_M11,T2_M11,T3_M11,T4_M11,T5_M11,U1_M11,ZSPAN_M11,X0_M11,X2_M11,X1_M11
2022-03-23 22:00:00,,0825.2,5.00,0.00,23.5,22.5,00.0,32.6,25.1,05.6,0000.0,0085.58,0005.31,0001.15
2022-03-23 22:01:00,,0825.3,4.99,0.00,23.5,22.4,00.0,32.6,25.1,05.8,0000.0,0086.55,0005.41,0001.13
2022-03-23 22:02:00,,0825.2,5.00,0.00,23.5,22.5,00.0,32.5,25.2,05.7,0000.0,0087.16,0005.41,0001.08
2022-03-23 22:03:00,,0825.2,4.99,0.00,23.5,22.5,00.0,32.5,25.2,05.3,0000.0,0087.15,0005.40,0001.07
2022-03-23 22:04:00,,0825.2,5.01,0.00,23.5,22.6,00.0,32.5,25.2,05.4,0000.0,0087.16,0005.40,0001.07
2022-03-23 22:05:00,,0825.2,4.99,0.00,23.5,22.6,00.0,32.5,25.2,05.1,0000.0,0087.13,0005.39,0001.06
2022-03-23 22:06:00,,0825.2,5.02,0.00,23.5,22.6,00.0,32.5,25.2,05.2,0000.0,0087.11,0005.38,0001.07
2022-03-23 22:07:00,,0825.2,5.00,0.00,23.5,22.6,00.0,32.5,25.2,05.0,0000.0,0087.18,0005.38,0001.06
2022-03-23 22:08:00,,0825.2,5.00,0.00,23.5,22.6,00.0,32.5,25.2,05.0,0000.0,0087.24,0005.40,0001.07
2022-03-23 22:09:00,,0825.2,5.00,0.00,23.5,22.7,00.0,32.5,25.2,05.2,0000.0,0087.05,0005.38,0001.07
2022-03-23 22:10:00,,0825.1,5.00,0.00,23.5,22.8,00.0,32.5,25.3,05.0,0000.0,0087.61,0005.38,0001.07
2022-03-23 22:11:00,,0825.1,5.00,0.00,23.6,22.8,00.0,32.5,25.3,05.1,0000.0,0020.22,0001.99,0000.64
2022-03-23 22:12:00,,0825.1,5.00,0.00,23.6,22.8,00.0,32.5,25.4,05.3,0000.0,0006.45,0001.13,0000.56
2022-03-23 22:13:00,,0825.0,5.01,0.00,23.6,22.9,00.0,32.5,25.4,05.3,0000.0,0004.75,0001.10,0000.62
2022-03-23 22:14:00,,0825.0,5.00,0.00,23.7,22.9,00.0,32.5,25.5,05.4,0000.0,0005.05,0001.16,0000.65
2022-03-23 22:15:00,,0824.9,4.99,0.00,23.7,22.9,00.0,32.6,25.5,05.6,0000.0,0005.10,0001.16,0000.66
2022-03-23 22:16:00,,0825.0,4.99,0.00,23.7,23.0,00.0,32.6,25.5,05.5,0000.0,0005.11,0001.18,0000.67
2022-03-23 22:17:00,,0825.1,5.01,0.00,23.7,23.0,00.0,32.6,25.5,05.6,0000.0,0005.21,0001.22,0000.68
2022-03-23 22:18:00,,0825.1,5.01,0.00,23.7,23.0,00.0,32.6,25.5,05.8,0000.0,0005.25,0001.25,0000.69
2022-03-23 22:19:00,,0825.1,4.99,0.00,23.7,23.0,00.0,32.6,25.5,05.4,0000.0,0005.26,0001.26,0000.68
2022-03-23 22:20:00,,0825.1,5.01,0.00,23.8,23.0,00.0,32.6,25.5,05.1,0000.0,0005.21,0001.24,0000.69
2022-03-23 22:21:00,,0825.1,5.00,0.00,23.8,23.0,00.0,32.6,25.6,05.2,0000.0,0004.34,0001.24,0000.69
2022-03-23 22:22:00,,0825.1,5.00,0.00,23.8,23.0,00.0,32.6,25.6,05.1,0000.0,0003.22,0001.22,0000.69
2022-03-23 22:23:00,,0825.1,5.00,0.00,23.8,23.0,00.0,32.7,25.6,05.2,0000.0,0003.16,0001.18,0000.67
2022-03-23 22:24:00,,0825.1,5.00,0.00,23.8,23.0,00.0,32.7,25.6,05.3,0000.0,0003.02,0001.15,0000.66
2022-03-23 22:25:00,,0825.1,5.00,0.00,23.8,23.0,00.0,32.7,25.6,05.4,0000.0,0002.26,0001.12,0000.66
2022-03-23 22:26:00,,0825.1,4.98,0.00,23.8,23.0,00.0,32.7,25.6,05.4,0000.0,0002.32,0001.17,0000.67
2022-03-23 22:27:00,,0825.0,5.00,0.00,23.9,23.0,00.0,32.7,25.6,05.2,0000.0,0002.48,0001.21,0000.67
2022-03-23 22:28:00,,0825.1,5.00,0.00,23.9,23.0,00.0,32.7,25.6,05.0,0000.0,0002.40,0001.19,0000.67
2022-03-23 22:29:00,,0825.1,5.01,0.00,23.9,23.0,00.0,32.7,25.6,04.9,0000.0,0002.17,0001.13,0000.67
2022-03-23 22:30:00,,0825.1,5.00,0.00,23.9,23.1,00.0,32.8,25.6,05.0,0000.0,0002.11,0001.11,0000.67
2022-03-23 22:31:00,,0825.1,4.99,0.00,23.9,23.1,00.0,32.8,25.7,05.2,0000.0,0002.34,0001.20,0000.67
2022-03-23 22:32:00,,0825.1,4.99,0.00,23.9,23.1,00.0,32.8,25.7,05.1,0000.0,0002.48,0001.26,0000.67
2022-03-23 22:33:00,,0825.1,4.99,0.00,23.9,23.1,00.0,32.8,25.7,05.5,0000.0,0003.28,0001.27,0000.68
2022-03-23 22:34:00,,0825.0,5.02,0.00,23.9,23.1,00.0,32.8,25.7,05.6,0000.0,0004.08,0001.29,0000.70
2022-03-23 22:35:00,,0824.9,4.99,0.00,23.9,23.1,00.0,32.8,25.7,05.4,0000.0,0004.16,0001.30,0000.70
2022-03-23 22:36:00,,0824.9,5.01,0.00,24.0,23.1,00.0,32.8,25.7,05.1,0000.0,0004.48,0001.36,0000.70
2022-03-23 22:37:00,,0824.9,4.99,0.00,24.0,23.1,00.0,32.8,25.7,05.6,0000.0,0004.48,0001.33,0000.70
2022-03-23 22:38:00,,0824.9,5.00,0.00,24.0,23.1,00.0,32.8,25.7,05.4,0000.0,0005.33,0001.27,0000.71
2022-03-23 22:39:00,,0824.8,5.00,0.00,24.0,23.2,00.0,32.9,25.8,05.0,0000.0,0005.96,0001.25,0000.70
2022-03-23 22:40:00,,0824.9,5.00,0.00,24.0,23.2,00.0,32.9,25.8,04.5,0000.0,0006.08,0001.28,0000.70
2022-03-23 22:41:00,,0824.8,5.02,0.00,24.0,23.2,00.0,32.9,25.9,05.0,0000.0,0006.20,0001.33,0000.71
2022-03-23 22:42:00,,0824.8,4.99,0.00,24.0,23.2,00.0,32.9,25.9,04.7,0000.0,0006.10,0001.25,0000.71
2022-03-23 22:43:00,,0824.8,5.00,0.00,24.0,23.2,00.0,32.9,25.9,04.6,0000.0,0005.97,0001.21,0000.70
2022-03-23 22:44:00,,0824.7,5.00,0.00,24.0,23.2,00.0,32.9,25.9,04.5,0000.0,0005.13,0001.22,0000.69
2022-03-23 22:45:00,,0824.8,5.01,0.00,24.1,23.2,00.0,32.9,25.9,04.7,0000.0,0004.75,0001.23,0000.69
2022-03-23 22:46:00,,0824.7,4.99,0.00,24.1,23.2,00.0,32.9,25.9,04.8,0000.0,0005.50,0001.25,0000.70
2022-03-23 22:47:00,,0824.7,5.00,0.00,24.1,23.2,00.0,32.9,25.9,04.9,0000.0,0005.40,0001.22,0000.71
2022-03-23 22:48:00,,0824.7,5.00,0.00,24.1,23.2,00.0,33.0,25.9,04.9,0000.0,0005.37,0001.20,0000.70
2022-03-23 22:49:00,,0824.7,5.00,0.00,24.1,23.2,00.0,33.0,25.9,04.7,0000.0,0004.43,0001.22,0000.70
2022-03-23 22:50:00,,0824.7,5.00,0.00,24.1,23.2,00.0,33.0,25.9,04.9,0000.0,0003.84,0001.24,0000.71
2022-03-23 22:51:00,,0824.7,5.00,0.00,24.1,23.2,00.0,33.0,25.9,04.9,0000.0,0003.83,0001.23,0000.71
2022-03-23 22:52:00,,0824.8,5.01,0.00,24.1,23.2,00.0,33.0,25.9,04.7,0000.0,0003.87,0001.27,0000.72
2022-03-23 22:53:00,,0824.9,5.00,0.00,24.1,23.2,00.0,33.0,25.9,04.8,0000.0,0003.86,0001.29,0000.71
2022-03-23 22:54:00,,0824.9,4.99,0.00,24.1,23.2,00.0,33.0,25.9,04.9,0000.0,0003.86,0001.30,0000.71
2022-03-23 22:55:00,,0824.8,4.99,0.00,24.1,23.2,00.0,33.0,25.9,04.9,0000.0,0004.05,0001.30,0000.72
2022-03-23 22:56:00,,0824.8,5.02,0.00,24.1,23.2,00.0,33.0,25.9,05.0,0000.0,0003.88,0001.29,0000.71
2022-03-23 22:57:00,,0824.8,4.99,0.00,24.1,23.2,00.0,33.0,25.9,05.1,0000.0,0003.12,0001.27,0000.69
2022-03-23 22:58:00,,0824.8,5.01,0.00,24.1,23.2,00.0,33.0,25.9,05.2,0000.0,0002.96,0001.26,0000.69
2022-03-23 22:59:00,,0824.7,5.01,0.00,24.1,23.1,00.0,33.0,25.9,05.2,0000.0,0002.87,0001.26,0000.68
